CamptonHillsWeather.com

Find the Weather for any City, State  
or Zipcode, or Country:

Campton Hills, IL Weather
Local Radar

Local Radar

Graphs, Details
Graphs and Gauges
Detailed Weather
Detailed Reports
Ajax Version (old)
Central Kane Co Summary
Davis Current Weather Graphs
Davis 24 Hour Weather History

CW3778 Data

Weather Underground
Maps
Temperature
Heat Index
Windchill
Humidity
Radar
Dew Point
Wind
Visibility
Visible Satellite
Satellite
Fronts
Snow Depth
Jet Stream
Flight Rules
Forecast Maps
Temperature Forecast
Maximum Temperature Forecast
Minimum Temperature Forecast
Dewpoint Forecast
Prevalent Weather
12Hr Probability of Precip.
Sky Cover
Health Maps
UV Forecast
Air Quality
Peak Air Quality Index
Weather Station
Davis Instruments Vantage Pro
Current Conditions [Select Refresh to Update]

Updated: 3:03am on 11/24/14

(location)
Currently:
47.4F

Clear
Overcast

High: 48.7 F< 
(12:00am
Low: 47.4 F 
(2:17am)
Wind: W 2 mph
Light Air
Gust: 4 mph
Today's High Wind: 7 mph (12:10am)
Humidity: 98%
Pressure: 29.08 in  (Steady
Pressure Rate: -0.004 in/hr
Dew Point: 46.9F
Wind Chill: 47.4 F
Heat Index (feels like): 54.3 F
Comfort Level: Cool
Temperature Rate:  -0.29F/hr
 
5 Day Forecast
 
Mon Tue Wed Thu Fri
Clear Clear Clear Clear Clear
Snow Partly Cloudy unknown Clear Partly Cloudy
45 27 34 27 32
21 19 12 9 27

Records and Normals
 
Temperature Forecast Normal Record
High 45 0 0
(0)
Low 21 0 0
(0)
 
Links
 
 
Weather Advisories
Warning Date: 9:12 PM CST on November 23, 2014
Warning Description: Winter Weather Advisory
Full Advisory Text...
Weather Map

Web Cam

Almanac
 
Sunrise:  
6:55am
Moonrise: 
8:47am

Moon Phase:
1%

Sunset: 
4:27pm
Moonset:  
6:48pm
 Star Chart...
Rainfall Totals
Hourly Rain 0.01 in
Daily Rain: 0.04 in
Monthly Rain: 0.97 in
Yearly Rain: 35.09 in
Normal Rain, month to date: 0.00 in
Normal Rain, year to date: 0.00 in
Link to Village of Campton Hills Map

Link to Counties of Illinois Map

Local Weather Exchange Network
Station ID City 
(Click for Map Location)
Neighborhood 
(Click for History)
Last Update (Date & Time) Temperature
 ()
Dew
Point ()
Humidity 
(%)
Wind 
(mph)
from the Wind Gust 
(mph) 
Pressure(in) Hourly
Rain(in)
KILSTCHA10 St. Charles Hunt Club 11/24 02:57:43 47.8 48.0 99 0 West 0 28.68 0.00
KILGENEV6 Geneva Dover Ridge 11/24 02:57:55 47.6 47.0 98 5 WSW 5 29.07 0.00
KILSTCHA8 St. Charles Ronzheimer Ave. & S. Tyler Rd. 11/24 02:57:59 47.8 47.0 97 0 WSW 4 29.06 0.00
KILGENEV3 Geneva Mill Creek (NE) 11/24 02:57:59 47.8 47.0 97 0 WSW 0 29.08 0.00
KILSTCHA1 St Charles CamptonHillsWeather.com Central Kane County 11/24 02:57:59 47.4 47.0 98 2 West 4 29.09 0.01
KILSOUTH5 South Elgin Concord Park 11/24 02:46:44 47.7 47.0 99 5 SSW 0 28.82 0.00
KILGENEV2 Geneva Mill Creek 11/24 02:57:39 46.9 46.0 97 3 SW 5 29.04 0.00
KILBATAV1 Batavia Tri-Cities on the Fox River 11/24 02:57:57 47.9 45.0 89 0 WSW 0 29.09 0.00
KILELBUR5 Elburn Prairie Highlands 11/24 02:55:16 47.9 47.0 98 1 WSW 5 29.08 0.01
KILBATAV3 Batavia West Batavia 11/24 02:45:46 47.5 47.0 97 2 West 0 29.07 0.00
KILELBUR6 Elburn Columbine Square 11/24 02:46:39 46.9 46.0 98 0 West 4 29.03 0.01
KILBATAV5 Batavia Fermi National Accelerator Laboratory 11/24 02:50:53 47.9 47.0 97 6 WSW 9 29.04 0.00
KILELBUR8 Elburn Columbine 11/24 02:42:50 47.0 47.0 98 2 WNW 7 29.06 0.00
KILWESTC5 West Chicago THEBROWNHOUSE.ORG 11/24 02:57:53 47.9 47.0 96 0 North 0 29.09 0.02
KILWESTC8 West Chicago Ingalton Hills Estates 11/24 02:57:58 48.0 47.0 97 5 South 5 29.21 0.01
KILNORTH11 North Aurora Waterford Oaks 11/24 02:57:53 47.8 47.0 98 4 WSW 8 29.08 0.00
KILELGIN10 Elgin Wing Park 11/24 02:57:15 47.7 47.0 98 0 ESE 0 28.29 0.00
MUP188 Elburn MesoWest ELBRN1 IL US UPR 11/24 01:20:00 48.0 0.0 0 0 North 0 0.00 0.00
KILELGIN14 Elgin Elgin, IL 11/24 02:57:55 47.1 46.0 97 0 WSW 1 29.03 0.00
KILCAROL5 Carol Stream Stonehenge Court 11/24 02:55:19 48.7 46.0 90 3 West 0 29.07 0.00
KILGILBE2 Gilberts Gilberts, IL 11/24 02:57:59 47.1 47.0 99 5 SW 6 29.06 0.00
KILELGIN11 Elgin Trout Park 11/24 00:24:09 47.5 47.0 98 5 NW 5 29.12 0.01
KILWINFI3 Winfield Fredericksburg Farm 11/24 02:57:58 47.7 47.0 97 0 SW 2 28.99 0.00
KILWINFI2 Winfield Winfield Heights (SarahNet) 11/24 02:55:48 48.0 47.0 95 0 West 5 29.07 0.00
KILSLEEP3 Sleepy Hollow SLEEPY HOLLOW 11/24 02:57:53 47.2 45.0 92 1 WSW 2 28.58 0.00
KILCAROL6 Carol Stream Merbach Ct 11/24 02:57:47 48.6 48.0 99 3 West 4 28.72 0.00
KILSLEEP2 Sleepy Hollow Sleepy Hollow Manor 11/24 02:47:24 47.1 46.0 97 2 West 0 28.97 0.00
KILWARRE2 Warrenville meso_neigh28 11/24 02:57:55 48.6 48.0 97 2 West 5 29.06 0.00
KILSTREA12 Streamwood Petri Dish 11/24 02:57:15 47.7 47.0 99 3 WNW 0 29.11 0.00
KILHANOV2 Hanover Park meso_neigh30 11/24 02:57:24 47.8 48.0 99 2 West 3 29.08 0.00
KILWHEAT8 Wheaton Wheaton Sanitary District 11/24 02:53:19 49.6 49.0 97 0 WSW 6 29.08 0.00
KILWHEAT5 Wheaton N9ABF - West Wheaton 11/24 02:44:21 48.2 46.0 92 1 West 0 29.07 0.00
KILSCHAU9 Schaumburg Schaumburg West 11/24 02:57:57 48.0 48.0 99 2 West 6 28.95 0.01
KILEASTD2 East Dundee Rock Road Industrial Park 11/24 02:55:28 47.6 45.0 89 7 WSW 11 29.06 0.00
KILCARPE6 Carpentersville Carpentersville 11/24 02:57:43 47.1 47.0 99 2 West 2 28.21 0.00
KILWHEAT11 Wheaton Wheaton SW Orth Ct 11/24 02:57:56 49.9 47.0 89 0 NNE 0 29.19 0.00
KILNAPER19 Naperville Brookdale Lakes 11/24 02:57:50 48.2 48.0 98 0 West 1 29.07 0.00
KDPA Chicago DuPage Official Station 11/24 02:52:00 48.0 47.0 96 7 WSW --- 29.08 ---
KARR Aurora Official Station 11/24 02:52:00 48.0 45.0 89 7 SW --- 29.09 ---
KDKB DeKalb Official Station 11/24 02:35:00 45.0 45.0 98 8 West --- 29.09 ---
Full Advisory Text
Warning Description: Winter Weather Advisory

Warning Date: 9:12 PM CST on November 23, 2014

WarningSum:...Winter Weather Advisory Remains In Effect From 3 Pm Monday To
Midnight Cst Monday Night...

Warning Message:* timing...Monday afternoon through Monday night.
* Snow accumulations...3 to 5 inches. Locally higher totals
  possible closer to the Wisconsin border.
* Winds...west winds 20 to 30 mph with gusts nearing 40 mph.
* Impact...as temperatures drop below freezing roads may become 
  snow covered and slippery...especially during the afternoon 
  and evening. Blowing snow will also cause reduced visibilities 
  especially on north/south roadways later Monday into Monday 
  evening. 
Precautionary/preparedness actions...
A Winter Weather Advisory for snow and blowing snow means that
visibilities will be limited due to a combination of falling and
blowing snow. Use caution when traveling...especially in open
areas.
Beachler/ratzer
Visit US at http://weather.Gov/Chicago (all lowercase)
Follow US on facebook...twitter...and youtube at:
www.Facebook.Com/nwschicago
        

Ambient Weather and Weather Underground
 Never base important decisions on this or any weather information obtained from the Internet
Updated Automatically by Ambient Weather's Virtual Weather Station  V13.01